Regional Weather Roundup
Issued by NWS

Home | Current Version | Previous Version | Text Only | Print | Product List | Glossary Off
Versions: 1 2 3 4 5 6 7 8 9 10 11 12 13 14 15 16 17 18 19 20 21 22 23 24 25 26 27 28 29 30 31 32 33 34 35 36 37 38 39 40 41 42 43 44 45 46 47 48 49 50

962
ASUS44 KJAN 261510
RWRMS

MISSISSIPPI HOURLY WEATHER ROUNDUP
NATIONAL WEATHER SERVICE JACKSON MS
1000 AM CDT THU MAR 26 2015

NOTE: "FAIR: INDICATES FEW OR NO CLOUDS BELOW 12,000 FEET WITH NO
SIGNIFICANT WEATHER AND/OR OBSTRUCTIONS TO VISIBILITY.

MSZ001>002-007>008-010>013-018>021-025>028-034>036-261600-
NORTHWEST MISSISSIPPI

CITY           SKY/WX    TMP DP  RH WIND       PRES   REMARKS
CLARKSDALE       N/A     63  63 100 S7        29.91R
CLEVELAND      CLOUDY    63  61  94 S8        29.90F
GREENWOOD      MOSUNNY   69  57  65 S12       29.91F
GREENVILLE     CLOUDY    65  58  78 S3        29.89F
OLIVE BRANCH   PTSUNNY   63  57  82 CALM      29.88F
OXFORD         FAIR      64  55  72 S3        29.88F
TUNICA         MOSUNNY   64  55  72 SW3       29.91R
$$

MSZ003>006-009-014>017-022>024-029>033-037>039-261600-
NORTHEAST MISSISSIPPI

CITY           SKY/WX    TMP DP  RH WIND       PRES   REMARKS
COLUMBUS AFB   SUNNY     68  57  67 W12       29.93S
CORINTH        FAIR      68  57  68 W6        29.88F
GOLDN TRIANGLE SUNNY     68  57  68 SW7       29.93F
STARKVILLE     FAIR      68  55  64 W5        29.93F
TUPELO         MOSUNNY   67  56  67 W8G17     29.90F
$$

MSZ040-058-261600-
CENTRAL MISSISSIPPI

CITY           SKY/WX    TMP DP  RH WIND       PRES   REMARKS
JACKSON INTL   MOSUNNY   69  60  73 CALM      29.91F
JACKSON HAWKNS SUNNY     69  58  67 CALM      29.92F
MERIDIAN KEY   CLOUDY    63  61  93 CALM      29.94F
MERIDIAN NAS   CLOUDY    65  60  84 W5        29.94F
RAYMOND        FAIR      70  66  88 CALM      29.91F
VICKSBURG      SUNNY     69  59  70 SE5       29.90F
$$

MSZ059>079-261600-
SOUTH MISSISSIPPI

CITY           SKY/WX    TMP DP  RH WIND       PRES   REMARKS
BROOKHAVEN     CLOUDY    66  66 100 CALM      29.93F
HATTIESBURG    CLOUDY    65  62  90 CALM      29.93F FOG
MCCOMB         PTSUNNY  N/A N/A N/A MISG      29.90F
NATCHEZ        SUNNY     70  63  78 SW3       29.91F
PINE BELT      CLOUDY    63  57  82 CALM      29.93F
$$

MSZ080>082-261600-
COASTAL MISSISSIPPI

CITY           SKY/WX    TMP DP  RH WIND       PRES   REMARKS
BAY ST LOUIS   PTSUNNY   66  63  88 CALM      29.91F
BILOXI         CLOUDY    68  66  93 E5        29.92F
PASCAGOULA     CLOUDY    66  64  93 CALM      29.93S
GULFPORT       CLOUDY    67  64  90 CALM      29.92F
$$



USA.gov is the U.S. government's official web portal to all federal, state and local government web resources and services.